Tiempo atmosférico en la estación meteorológica de Rasquera, Tarragona (186 m.)



Fecha
DESCASC
Temp. máxima en grados centígrados (hora)
DESCASC
Temp. mínima en grados centígrados (hora)
DESCASC
Temp. media en grados centígrados
DESCASC
Racha de viento máxima en m/sg (hora)
DESCASC
Velocidad máxima media en intervalos de 10 minutos(hora)
DESCASC
Precipitaciones diarias en mm
DESCASC
Precipitaciones de 00:00 a 06:00 en mm
DESCASC
Precipitaciones de 06:00 a 12:00 en mm
DESCASC
Precipitaciones de 12:00 a 18:00 en mm
DESCASC
Precipitaciones de 18:00 a 24:00 en mm
DESCASC
19-01-2020 11 (02:40) 4.6 (23:59) 7.8 8.61 (03:30) 4.44 (03:40) 14.4 2.2 12.2 0 0
18-01-2020 15.2 (14:40) 5.1 (07:00) 10.1 9.44 (01:30) 5.56 (00:30) 0 0 0 0 0
17-01-2020 17.1 (15:00) 5.4 (08:30) 11.3 12.78 (15:00) 6.67 (15:40) 0.2 0.2 0 0 0
16-01-2020 15.5 (17:00) -1.6 (-00:0) 6.9 5.83 (19:40) 3.33 (18:40) 0 0 0 0 0
15-01-2020 11.8 (17:00) -1.9 (-00:0) 5 2.5 (08:00) 1.39 (13:20) 0 0 0 0 0
14-01-2020 11.4 (17:00) -1.6 (-00:0) 4.9 3.89 (03:50) 2.5 (03:50) 0 0 0 0 0
13-01-2020 6.9 (15:20) -2 (-00:0) 2.5 3.33 (15:20) 1.94 (15:20) 0 0 0 0 0
12-01-2020 10.8 (15:30) -2.3 (06:30) 4.3 6.39 (13:50) 3.61 (14:50) 0 0 0 0 0
11-01-2020 12.9 (15:30) -0.2 (00:00) 6.3 10.83 (13:40) 6.11 (13:40) 0 0 0 0 0
10-01-2020 9.8 (16:30) 4.2 (00:00) 7 8.89 (10:00) 5.28 (08:20) 0.2 0 0.2 0 0
09-01-2020 5.7 (20:10) 2.6 (00:00) 4.1 2.78 (12:50) 1.94 (21:40) 0 0 0 0 0
08-01-2020 10.6 (15:50) 1.8 (00:00) 6.2 6.11 (03:10) 3.89 (04:50) 0 0 0 0 0
07-01-2020 6.9 (14:50) 2.3 (00:00) 4.6 8.89 (15:00) 5 (15:00) 0 0 0 0 0
06-01-2020 6.6 (15:40) 0.1 (00:00) 3.3 6.94 (22:10) 3.89 (21:40) 0.2 0 0.2 0 0
05-01-2020 11.6 (15:20) 0.2 (00:00) 5.9 7.5 (12:50) 4.72 (13:00) 0 0 0 0 0
04-01-2020 9.3 (14:10) 3.5 (00:00) 6.4 7.78 (11:30) 4.72 (11:20) 0 0 0 0 0
03-01-2020 4.1 (14:30) 1.5 (00:00) 2.8 9.72 (14:00) 6.39 (14:00) 0 0 0 0 0
02-01-2020 4.5 (15:30) 1.5 (00:00) 3 5 (04:40) 3.06 (03:20) 0 0 0 0 0
01-01-2020 4 (00:40) 2.5 (00:00) 3.3 8.61 (07:20) 6.39 (07:20) 0 0 0 0 0
31-12-2019 5.9 (14:00) 3 (00:00) 4.5 6.94 (21:40) 4.72 (21:00) 0 0 0 0 0
30-12-2019 6 (13:50) 3.9 (00:00) 5 5.28 (12:40) 3.33 (13:00) 0 0 0 0 0
29-12-2019 7.5 (14:30) 3.6 (00:00) 5.5 6.11 (15:10) 3.61 (15:10) 0 0 0 0 0
28-12-2019 10.8 (15:40) 1.6 (00:00) 6.2 4.17 (07:50) 2.5 (13:20) 0 0 0 0 0
27-12-2019 12.2 (14:50) 3.1 (00:00) 7.6 6.94 (15:50) 4.17 (05:40) 0 0 0 0 0
26-12-2019 16.9 (14:50) 5.6 (00:00) 11.2 13.61 (14:10) 7.5 (14:10) 0 0 0 0 0
25-12-2019 17 (15:30) 7 (00:00) 12 7.22 (00:20) 4.72 (00:20) 0 0 0 0 0
24-12-2019 17.7 (15:30) 6.9 (08:10) 12.3 6.94 (23:59) 4.44 (06:30) 0 0 0 0 0
23-12-2019 16.9 (15:30) 10.3 (00:00) 13.6 16.94 (01:40) 9.72 (00:40) 0 0 0 0 0

Gráficas

Temp. máximas Temp. mínimas Temp. medias Precipitaciones Rachas de viento máximas Velocidades máximas media en intervalos de 10 minutos

Datos horarios

Fecha y hora oficial Temperatura (ºC) Velocidad del viento (km/h) Dirección del viento Racha (km/h) Dirección de racha Precipitación (mm) Presión (hPa) Tendencia (hPa) Humedad (%)
2020-01-21 23:00:00 7.4 6 Oeste 10 Oeste 1.2 -- -- 98
2020-01-21 22:00:00 7.5 5 Oeste 13 Noroeste 2.8 -- -- 97
2020-01-21 21:00:00 7.4 6 Sudeste 45 Sur 11.4 -- -- 96
2020-01-21 20:00:00 7.6 27 Sudeste 66 Este 5.2 -- -- 90
2020-01-21 19:00:00 11.6 35 Este 68 Este 2.2 -- -- 88
2020-01-21 18:00:00 11.8 30 Este 61 Este 2.6 -- -- 88
2020-01-21 17:00:00 11.7 28 Este 65 Este 1.2 -- -- 89
2020-01-21 16:00:00 12 32 Este 76 Este 4.4 -- -- 89
2020-01-21 15:00:00 12.1 35 Este 66 Este 6.6 -- -- 91
2020-01-21 14:00:00 11.7 23 Este 59 Este 4.4 -- -- 92
2020-01-21 13:00:00 11.6 19 Este 65 Este 3.8 -- -- 92
2020-01-21 12:00:00 10.8 16 Este 48 Este 4.2 -- -- 93
2020-01-21 11:00:00 9.9 19 Este 51 Nordeste 3.6 -- -- 92
2020-01-21 10:00:00 10.2 15 Nordeste 52 Este 1.2 -- -- 91
2020-01-21 09:00:00 9.6 17 Nordeste 40 Nordeste 2.2 -- -- 93
2020-01-21 08:00:00 7.2 6 Noroeste 19 Noroeste 1.2 -- -- 96
2020-01-21 07:00:00 6.8 6 Noroeste 21 Oeste 3.8 -- -- 97
2020-01-21 06:00:00 6.4 4 Oeste 15 Oeste 4.2 -- -- 97
2020-01-21 05:00:00 6.3 4 Norte 22 Oeste 5.2 -- -- 95
2020-01-21 04:00:00 6.9 12 Oeste 21 Noroeste 2.4 -- -- 94
2020-01-21 03:00:00 7 5 Noroeste 21 Oeste 1 -- -- 91
2020-01-21 02:00:00 6.7 3 Noroeste 22 Noroeste 1.6 -- -- 92
2020-01-21 01:00:00 6.8 11 Oeste 19 Oeste 2.6 -- -- 92
2020-01-21 00:00:00 6.6 6 Oeste 19 Noroeste 1 -- -- 91
2020-01-20 23:00:00 5.7 10 Oeste 17 Sudoeste 2 -- -- 97
2020-01-20 22:00:00 4.2 4 Sur 18 Oeste 2.4 -- -- 99
2020-01-20 21:00:00 3.1 4 Noroeste 12 Sudoeste 1 -- -- 98
2020-01-20 20:00:00 2.8 0 Calma 8 Sudoeste 1.2 -- -- 98
2020-01-20 19:00:00 2.6 0 Calma 8 Nordeste 1 -- -- 98
2020-01-20 18:00:00 2.5 2 Noroeste 16 Norte 1.8 -- -- 98
2020-01-20 17:00:00 2.7 7 Norte 13 Oeste 2.6 -- -- 98
2020-01-20 16:00:00 2.6 5 Norte 12 Norte 3.8 -- -- 97
2020-01-20 15:00:00 2.9 3 Nordeste 15 Oeste 2.4 -- -- 95
2020-01-20 14:00:00 2.8 11 Oeste 23 Oeste 2.6 -- -- 93
2020-01-20 13:00:00 3.1 13 Oeste 25 Oeste 1.6 -- -- 93
2020-01-20 12:00:00 3.2 7 Noroeste 28 Sudoeste 0.8 -- -- 93
2020-01-20 11:00:00 3 12 Oeste 25 Oeste 1.4 -- -- 92
2020-01-20 10:00:00 2.9 14 Oeste 25 Oeste 1.2 -- -- 92
2020-01-20 09:00:00 3.2 11 Oeste 30 Oeste 0.8 -- -- 90
2020-01-20 08:00:00 3.5 15 Oeste 30 Oeste 0.2 -- -- 88
2020-01-20 07:00:00 3.7 12 Oeste 33 Sudoeste 0.2 -- -- 83
2020-01-20 06:00:00 3.8 18 Oeste 33 Sudoeste 0.2 -- -- 83
2020-01-20 05:00:00 4.1 11 Oeste 25 Noroeste 0.2 -- -- 75
2020-01-20 04:00:00 4.2 7 Nordeste 18 Oeste 0 -- -- 78
2020-01-20 03:00:00 4.4 5 Noroeste 13 Noroeste 0 -- -- 80
2020-01-20 02:00:00 4 3 Sur 8 Este 0 -- -- 87
2020-01-20 01:00:00 4.2 0 Calma 5 Norte 0 -- -- 87
2020-01-20 00:00:00 4.6 0 Calma 9 Noroeste 0 -- -- 84
2020-01-19 23:00:00 5.2 4 Noroeste 9 Nordeste 0 -- -- 82
2020-01-19 22:00:00 5.4 4 Oeste 12 Oeste 0 -- -- 93
2020-01-19 21:00:00 5.2 3 Oeste 7 Noroeste 0 -- -- 93
2020-01-19 20:00:00 5.1 0 Calma 5 Oeste 0 -- -- 93
2020-01-19 19:00:00 7 0 Calma 7 Oeste 0 -- -- 89
2020-01-19 18:00:00 7.7 5 Norte 12 Noroeste 0 -- -- 92
2020-01-19 17:00:00 8.3 4 Norte 8 Norte 0 -- -- 92
2020-01-19 16:00:00 8.2 4 Norte 19 Oeste 0 -- -- 92
2020-01-19 15:00:00 7.7 6 Oeste 20 Oeste 0 -- -- 93
2020-01-19 14:00:00 7.2 7 Oeste 14 Sudoeste 0 -- -- 96
2020-01-19 13:00:00 6.7 0 Calma 12 Norte 0 -- -- 97
2020-01-19 12:00:00 6.2 3 Noroeste 12 Norte 0.4 -- -- 97
2020-01-19 11:00:00 6 6 Noroeste 12 Noroeste 1 -- -- 97
2020-01-19 10:00:00 6.2 7 Noroeste 13 Noroeste 1.8 -- -- 97
2020-01-19 09:00:00 6.3 5 Noroeste 8 Noroeste 2.6 -- -- 97
2020-01-19 08:00:00 6.3 4 Oeste 12 Noroeste 4.6 -- -- 97
2020-01-19 07:00:00 6.5 5 Noroeste 14 Noroeste 1.8 -- -- 95
2020-01-19 06:00:00 6.8 8 Noroeste 20 Noroeste 1.8 -- -- 93
2020-01-19 05:00:00 7.7 14 Noroeste 24 Noroeste 0.4 -- -- 85
2020-01-19 04:00:00 9.1 12 Oeste 31 Oeste 0 -- -- 73
2020-01-19 03:00:00 10.8 11 Oeste 30 Oeste 0 -- -- 70
2020-01-19 02:00:00 10.4 14 Sudoeste 24 Sudoeste 0 -- -- 88
2020-01-19 01:00:00 8.8 0 Calma 9 Oeste 0 -- -- 94
2020-01-19 00:00:00 8.4 4 Oeste 8 Oeste 0 -- -- 95
2020-01-18 23:00:00 8.4 0 Calma 12 Este 0 -- -- 91
2020-01-18 22:00:00 9.5 0 Calma 6 Sur 0 -- -- 90
2020-01-18 21:00:00 10.4 5 Sudeste 9 Sudeste 0 -- -- 86
2020-01-18 20:00:00 10.8 6 Sudeste 15 Sudeste 0 -- -- 84
2020-01-18 19:00:00 10.9 10 Sudeste 16 Sudeste 0 -- -- 84
2020-01-18 18:00:00 10.9 8 Sudeste 20 Sudeste 0 -- -- 81
2020-01-18 17:00:00 13.1 11 Sudeste 26 Sudeste 0 -- -- 70
2020-01-18 16:00:00 14.1 16 Sudeste 27 Este 0 -- -- 63
2020-01-18 15:00:00 14.8 10 Este 21 Este 0 -- -- 60
2020-01-18 14:00:00 13.2 4 Noroeste 12 Noroeste 0 -- -- 58
2020-01-18 13:00:00 11.5 6 Noroeste 11 Norte 0 -- -- 59
2020-01-18 12:00:00 10.6 2 Este 9 Nordeste 0 -- -- 64
2020-01-18 11:00:00 7.8 3 Norte 10 Oeste 0 -- -- 76
2020-01-18 10:00:00 5.9 0 Calma 8 Sur 0 -- -- 83
2020-01-18 09:00:00 5.7 6 Oeste 10 Noroeste 0 -- -- 79
2020-01-18 08:00:00 6.3 6 Oeste 21 Noroeste 0 -- -- 76
2020-01-18 07:00:00 5.1 9 Oeste 16 Noroeste 0 -- -- 82
2020-01-18 06:00:00 5.8 5 Noroeste 8 Noroeste 0 -- -- 78
2020-01-18 05:00:00 6.4 2 Sudoeste 9 Este 0 -- -- 75
2020-01-18 04:00:00 7.2 6 Norte 22 Oeste 0 -- -- 70
2020-01-18 03:00:00 9.2 14 Oeste 31 Sudoeste 0 -- -- 62
2020-01-18 02:00:00 9.4 18 Oeste 34 Oeste 0 -- -- 62
2020-01-18 01:00:00 9.6 14 Oeste 31 Oeste 0 -- -- 62
2020-01-18 00:00:00 10 17 Oeste 33 Oeste 0 -- -- 61
2020-01-17 23:00:00 10.5 16 Oeste 40 Oeste 0 -- -- 58
2020-01-17 22:00:00 11 22 Oeste 37 Oeste 0 -- -- 58
2020-01-17 21:00:00 11.4 12 Oeste 32 Oeste 0 -- -- 57
2020-01-17 20:00:00 12.4 15 Oeste 34 Oeste 0 -- -- 54
2020-01-17 19:00:00 12.8 15 Noroeste 38 Noroeste 0 -- -- 53
2020-01-17 18:00:00 14.3 18 Noroeste 45 Noroeste 0 -- -- 54
2020-01-17 17:00:00 16.2 17 Noroeste 45 Oeste 0 -- -- 45
2020-01-17 16:00:00 16.6 20 Noroeste 45 Oeste 0 -- -- 45
2020-01-17 15:00:00 17.1 19 Oeste 46 Noroeste 0 -- -- 46
2020-01-17 14:00:00 16.9 10 Noroeste 34 Noroeste 0 -- -- 49
2020-01-17 13:00:00 14.5 11 Norte 16 Norte 0 -- -- 66
2020-01-17 12:00:00 7.8 4 Noroeste 12 Norte 0 -- -- 100
2020-01-17 11:00:00 6.2 4 Norte 14 Noroeste 0 -- -- 100
2020-01-17 10:00:00 5.5 5 Norte 12 Norte 0 -- -- 99
2020-01-17 09:00:00 5.7 5 Noroeste 9 Noroeste 0 -- -- 99
2020-01-17 08:00:00 5.6 2 Noroeste 6 Oeste 0 -- -- 99
2020-01-17 07:00:00 6.2 4 Noroeste 8 Noroeste 0 -- -- 99
2020-01-17 06:00:00 6.2 4 Oeste 7 Noroeste 0.2 -- -- 99
2020-01-17 05:00:00 6.6 0 Calma 5 Oeste 0 -- -- 98
2020-01-17 04:00:00 6.8 0 Calma 6 Oeste 0 -- -- 98
2020-01-17 03:00:00 6.6 0 Calma 5 Norte 0 -- -- 98
2020-01-17 02:00:00 6.5 4 Sudoeste 5 Sudoeste 0 -- -- 97
2020-01-17 01:00:00 6.4 0 Calma 8 Sudoeste 0 -- -- 97
2020-01-17 00:00:00 7.2 0 Calma 6 Sudeste 0 -- -- 96
2020-01-16 23:00:00 7.3 2 Este 6 Noroeste 0 -- -- 96
2020-01-16 22:00:00 8.1 3 Nordeste 9 Sudeste 0 -- -- 92
2020-01-16 21:00:00 9.7 7 Sur 18 Sudeste 0 -- -- 91
2020-01-16 20:00:00 10.5 9 Sur 21 Sur 0 -- -- 89
2020-01-16 19:00:00 10.7 10 Sur 19 Sur 0 -- -- 90
2020-01-16 18:00:00 11.3 11 Sudeste 15 Sudeste 0 -- -- 76
2020-01-16 17:00:00 15.5 2 Nordeste 5 Norte 0 -- -- 63
2020-01-16 16:00:00 14.9 0 Calma 5 Sur 0 -- -- 63
2020-01-16 15:00:00 13.1 0 Calma 8 Noroeste 0 -- -- 66
2020-01-16 14:00:00 10.3 4 Noroeste 8 Norte 0 -- -- 71
2020-01-16 13:00:00 8.3 2 Norte 7 Norte 0 -- -- 76
2020-01-16 12:00:00 4.7 3 Noroeste 6 Noroeste 0 -- -- 89
2020-01-16 11:00:00 1.9 3 Norte 5 Norte 0 -- -- 97
2020-01-16 10:00:00 0.4 0 Calma 2 Norte 0 -- -- 98
2020-01-16 09:00:00 -1.5 0 Calma 3 Nordeste 0 -- -- 98
2020-01-16 08:00:00 -1.2 0 Calma 4 Sudeste 0 -- -- 97
2020-01-16 07:00:00 -0.8 0 Calma 4 Oeste 0 -- -- 97
2020-01-16 06:00:00 -0.6 0 Calma 4 Nordeste 0 -- -- 97
2020-01-16 05:00:00 0.1 3 Oeste 4 Noroeste 0 -- -- 97
2020-01-16 04:00:00 0.9 2 Oeste 5 Oeste 0 -- -- 97
2020-01-16 03:00:00 0.7 2 Noroeste 4 Sudoeste 0 -- -- 95
2020-01-16 02:00:00 2 0 Calma 8 Noroeste 0 -- -- 94
2020-01-16 01:00:00 2.2 3 Oeste 5 Norte 0 -- -- 96
2020-01-16 00:00:00 1.4 0 Calma 6 Oeste 0 -- -- 96
2020-01-15 23:00:00 1.6 0 Calma 4 Sudoeste 0 -- -- 95
2020-01-15 22:00:00 2.1 3 Oeste 5 Sudoeste 0 -- -- 93
2020-01-15 21:00:00 2.5 0 Calma 5 Sudeste 0 -- -- 92
2020-01-15 20:00:00 3.4 2 Este 5 Sudoeste 0 -- -- 89
2020-01-15 19:00:00 4.3 0 Calma 5 Sur 0 -- -- 85
2020-01-15 18:00:00 6.8 3 Sur 4 Sur 0 -- -- 75
2020-01-15 17:00:00 11.8 0 Calma 6 Noroeste 0 -- -- 57
2020-01-15 16:00:00 10.3 4 Noroeste 7 Noroeste 0 -- -- 61
2020-01-15 15:00:00 9.2 3 Norte 6 Noroeste 0 -- -- 64
2020-01-15 14:00:00 7.9 3 Norte 9 Noroeste 0 -- -- 71
2020-01-15 13:00:00 5.2 3 Noroeste 9 Norte 0 -- -- 82
2020-01-15 12:00:00 2.2 0 Calma 6 Nordeste 0 -- -- 100
2020-01-15 11:00:00 0.1 4 Nordeste 6 Nordeste 0 -- -- 99
2020-01-15 10:00:00 -0.6 0 Calma 5 Oeste 0 -- -- 99
2020-01-15 09:00:00 -1.2 0 Calma 8 Oeste 0 -- -- 99
2020-01-15 08:00:00 -1.1 5 Noroeste 9 Norte 0 -- -- 99
2020-01-15 07:00:00 -0.9 2 Norte 5 Norte 0 -- -- 99
2020-01-15 06:00:00 -0.9 2 Norte 8 Noroeste 0 -- -- 99
2020-01-15 05:00:00 -0.9 3 Noroeste 7 Norte 0 -- -- 98
2020-01-15 04:00:00 -1 3 Noroeste 6 Noroeste 0 -- -- 98
2020-01-15 03:00:00 -1.1 0 Calma 3 Noroeste 0 -- -- 98
2020-01-15 02:00:00 -1.2 0 Calma 5 Nordeste 0 -- -- 97
2020-01-15 01:00:00 -1.5 0 Calma 4 Norte 0 -- -- 97
2020-01-15 00:00:00 -1.6 0 Calma 3 Noroeste 0 -- -- 96
2020-01-14 23:00:00 -0.9 0 Calma 4 Oeste 0 -- -- 95
2020-01-14 22:00:00 -0.4 0 Calma 4 Este 0 -- -- 94
2020-01-14 21:00:00 0.2 0 Calma 4 Este 0 -- -- 92
2020-01-14 20:00:00 1.4 0 Calma 5 Noroeste 0 -- -- 90
2020-01-14 19:00:00 2.8 3 Oeste 6 Oeste 0 -- -- 86
2020-01-14 18:00:00 5.6 4 Sudoeste 5 Sudoeste 0 -- -- 76
2020-01-14 17:00:00 11.4 0 Calma 6 Noroeste 0 -- -- 58
2020-01-14 16:00:00 10.4 3 Norte 8 Norte 0 -- -- 59
2020-01-14 15:00:00 9.1 4 Noroeste 8 Norte 0 -- -- 62
2020-01-14 14:00:00 7.4 4 Noroeste 9 Norte 0 -- -- 67
2020-01-14 13:00:00 5.5 3 Norte 10 Noroeste 0 -- -- 72
2020-01-14 12:00:00 2.2 5 Noroeste 10 Noroeste 0 -- -- 97
2020-01-14 11:00:00 -0.3 0 Calma 5 Norte 0 -- -- 99
2020-01-14 10:00:00 -1 3 Norte 9 Norte 0 -- -- 99
2020-01-14 09:00:00 -1.2 4 Norte 8 Norte 0 -- -- 99
2020-01-14 08:00:00 -1.1 4 Norte 12 Norte 0 -- -- 99
2020-01-14 07:00:00 -0.7 3 Norte 11 Norte 0 -- -- 99
2020-01-14 06:00:00 -0.6 4 Norte 14 Noroeste 0 -- -- 99
2020-01-14 05:00:00 -0.5 5 Norte 12 Norte 0 -- -- 98
2020-01-14 04:00:00 -0.4 7 Noroeste 14 Noroeste 0 -- -- 98
2020-01-14 03:00:00 -0.3 6 Norte 10 Noroeste 0 -- -- 98
2020-01-14 02:00:00 -0.3 6 Noroeste 11 Norte 0 -- -- 98
2020-01-14 01:00:00 -0.5 0 Calma 7 Norte 0 -- -- 98
2020-01-14 00:00:00 -1.2 0 Calma 4 Oeste 0 -- -- 97
2020-01-13 23:00:00 -1.5 0 Calma 4 Norte 0 -- -- 95
2020-01-13 22:00:00 -1.2 2 Sudoeste 4 Sur 0 -- -- 94
2020-01-13 21:00:00 -0.4 0 Calma 4 Noroeste 0 -- -- 92
2020-01-13 20:00:00 1.4 0 Calma 6 Oeste 0 -- -- 88
2020-01-13 19:00:00 3.3 0 Calma 10 Noroeste 0 -- -- 85
2020-01-13 18:00:00 4.5 5 Norte 12 Norte 0 -- -- 82
2020-01-13 17:00:00 6 6 Noroeste 10 Noroeste 0 -- -- 79
2020-01-13 16:00:00 6.7 5 Noroeste 12 Noroeste 0 -- -- 74
2020-01-13 15:00:00 6.8 4 Norte 10 Noroeste 0 -- -- 74
2020-01-13 14:00:00 5.7 4 Noroeste 9 Norte 0 -- -- 79
2020-01-13 13:00:00 4.4 3 Norte 9 Noroeste 0 -- -- 82
2020-01-13 12:00:00 1.9 4 Oeste 8 Oeste 0 -- -- 100
2020-01-13 11:00:00 -0.5 0 Calma 7 Noroeste 0 -- -- 99
2020-01-13 10:00:00 -1.2 3 Norte 6 Norte 0 -- -- 99
2020-01-13 09:00:00 -1.5 0 Calma 6 Norte 0 -- -- 98
2020-01-13 08:00:00 -1.3 2 Oeste 8 Norte 0 -- -- 98
2020-01-13 07:00:00 -1.3 4 Noroeste 8 Norte 0 -- -- 98
2020-01-13 06:00:00 -1.3 0 Calma 6 Norte 0 -- -- 98
2020-01-13 05:00:00 -1.1 3 Noroeste 7 Noroeste 0 -- -- 97
2020-01-13 04:00:00 -1.2 3 Noroeste 6 Norte 0 -- -- 97
2020-01-13 03:00:00 -1.5 3 Oeste 6 Oeste 0 -- -- 96
2020-01-13 02:00:00 -1.4 3 Noroeste 5 Norte 0 -- -- 95
2020-01-13 01:00:00 -1.5 0 Calma 3 Noroeste 0 -- -- 94
2020-01-13 00:00:00 -0.7 0 Calma 4 Noroeste 0 -- -- 92
2020-01-12 23:00:00 0.6 4 Oeste 6 Oeste 0 -- -- 90
2020-01-12 22:00:00 1.6 4 Oeste 8 Noroeste 0 -- -- 87
2020-01-12 21:00:00 0.6 0 Calma 5 Noroeste 0 -- -- 89
2020-01-12 20:00:00 1.8 3 Oeste 5 Oeste 0 -- -- 85
2020-01-12 19:00:00 5.2 5 Noroeste 9 Oeste 0 -- -- 72
2020-01-12 18:00:00 7.3 6 Oeste 12 Noroeste 0 -- -- 67
2020-01-12 17:00:00 10.2 9 Noroeste 14 Norte 0 -- -- 55
2020-01-12 16:00:00 10.7 10 Norte 20 Norte 0 -- -- 56
2020-01-12 15:00:00 10.6 12 Norte 21 Noroeste 0 -- -- 56
2020-01-12 14:00:00 9.8 13 Norte 23 Norte 0 -- -- 58
2020-01-12 13:00:00 8.7 10 Norte 17 Norte 0 -- -- 62
2020-01-12 12:00:00 5.9 4 Noroeste 9 Noroeste 0 -- -- 73
2020-01-12 11:00:00 3.3 5 Noroeste 11 Oeste 0 -- -- 84
2020-01-12 10:00:00 1 7 Noroeste 14 Noroeste 0 -- -- 94
2020-01-12 09:00:00 -0.1 5 Oeste 9 Oeste 0 -- -- 98
2020-01-12 08:00:00 -1.2 3 Noroeste 9 Oeste 0 -- -- 97
2020-01-12 07:00:00 -1.7 2 Oeste 7 Oeste 0 -- -- 97
2020-01-12 06:00:00 -2 0 Calma 6 Noroeste 0 -- -- 96
2020-01-12 05:00:00 -0.2 2 Noroeste 11 Oeste 0 -- -- 96
2020-01-12 04:00:00 -0.2 5 Oeste 8 Oeste 0 -- -- 97
2020-01-12 03:00:00 0.4 5 Oeste 8 Oeste 0 -- -- 97
2020-01-12 02:00:00 -0.6 3 Oeste 5 Oeste 0 -- -- 97
2020-01-12 01:00:00 -1.2 0 Calma 0 Calma 0 -- -- 96
2020-01-12 00:00:00 -0.2 0 Calma 6 Noroeste 0 -- -- 95
2020-01-11 23:00:00 0.1 2 Oeste 4 Oeste 0 -- -- 94
2020-01-11 22:00:00 1 2 Sur 7 Sudeste 0 -- -- 93
2020-01-11 21:00:00 1.8 0 Calma 2 Nordeste 0 -- -- 91
2020-01-11 20:00:00 2.9 0 Calma 5 Sur 0 -- -- 88
2020-01-11 19:00:00 4.4 0 Calma 6 Sudeste 0 -- -- 83
2020-01-11 18:00:00 8.7 3 Oeste 12 Norte 0 -- -- 68
2020-01-11 17:00:00 11.7 10 Noroeste 22 Noroeste 0 -- -- 58
2020-01-11 16:00:00 12.8 14 Noroeste 25 Noroeste 0 -- -- 54
2020-01-11 15:00:00 12.8 14 Noroeste 30 Noroeste 0 -- -- 53
2020-01-11 14:00:00 12.1 17 Noroeste 39 Noroeste 0 -- -- 54
2020-01-11 13:00:00 11.5 20 Noroeste 38 Noroeste 0 -- -- 56
2020-01-11 12:00:00 10.8 18 Noroeste 30 Oeste 0 -- -- 59
2020-01-11 11:00:00 7.3 7 Noroeste 16 Noroeste 0 -- -- 81
2020-01-11 10:00:00 4.2 6 Noroeste 13 Noroeste 0 -- -- 89
2020-01-11 09:00:00 2.7 6 Oeste 16 Noroeste 0 -- -- 94
2020-01-11 08:00:00 2.5 10 Noroeste 16 Noroeste 0 -- -- 94
2020-01-11 07:00:00 2.1 9 Noroeste 17 Noroeste 0 -- -- 95
2020-01-11 06:00:00 2.8 10 Noroeste 17 Norte 0 -- -- 94
2020-01-11 05:00:00 3.3 7 Noroeste 14 Noroeste 0 -- -- 93
2020-01-11 04:00:00 3.5 6 Noroeste 14 Oeste 0 -- -- 93
2020-01-11 03:00:00 4.3 8 Noroeste 15 Noroeste 0 -- -- 90
2020-01-11 02:00:00 4.3 8 Noroeste 13 Noroeste 0 -- -- 90
2020-01-11 01:00:00 4.4 5 Oeste 14 Noroeste 0 -- -- 90
2020-01-11 00:00:00 4.6 9 Noroeste 16 Noroeste 0 -- -- 92
2020-01-10 23:00:00 5.1 11 Noroeste 21 Noroeste 0 -- -- 91
2020-01-10 22:00:00 4.8 12 Noroeste 18 Norte 0 -- -- 94
2020-01-10 21:00:00 4.7 9 Noroeste 17 Norte 0 -- -- 96
2020-01-10 20:00:00 5.5 6 Noroeste 9 Oeste 0 -- -- 93
2020-01-10 19:00:00 6.6 6 Oeste 10 Oeste 0 -- -- 89
2020-01-10 18:00:00 7.3 7 Oeste 9 Oeste 0 -- -- 85
2020-01-10 17:00:00 9.5 4 Oeste 7 Norte 0 -- -- 80
2020-01-10 16:00:00 9.2 4 Noroeste 7 Noroeste 0 -- -- 79
2020-01-10 15:00:00 9 3 Noroeste 12 Norte 0 -- -- 79
2020-01-10 14:00:00 8.8 4 Norte 11 Norte 0 -- -- 81
2020-01-10 13:00:00 8.6 8 Norte 13 Noroeste 0 -- -- 81
2020-01-10 12:00:00 8.4 8 Noroeste 14 Noroeste 0 -- -- 82
2020-01-10 11:00:00 8.2 8 Norte 22 Oeste 0 -- -- 82
2020-01-10 10:00:00 8.2 19 Oeste 32 Oeste 0 -- -- 78
2020-01-10 09:00:00 5.3 14 Noroeste 31 Norte 0.2 -- -- 92
2020-01-10 08:00:00 4.4 14 Noroeste 25 Noroeste 0 -- -- 94
2020-01-10 07:00:00 4.2 12 Noroeste 21 Noroeste 0 -- -- 95
2020-01-10 06:00:00 4.9 5 Norte 21 Norte 0 -- -- 91
2020-01-10 05:00:00 5.4 16 Noroeste 27 Oeste 0 -- -- 88
2020-01-10 04:00:00 5.1 9 Norte 28 Oeste 0 -- -- 91
2020-01-10 03:00:00 5.4 10 Norte 17 Norte 0 -- -- 99
2020-01-10 02:00:00 5.8 8 Norte 16 Norte 0 -- -- 100
2020-01-10 01:00:00 5.4 5 Sur 6 Sur 0 -- -- 100
2020-01-10 00:00:00 5.4 0 Calma 9 Sudeste 0 -- -- 100
2020-01-09 23:00:00 5 0 Calma 4 Este 0 -- -- 100
2020-01-09 22:00:00 4.9 3 Noroeste 10 Noroeste 0 -- -- 100
2020-01-09 21:00:00 5.2 0 Calma 4 Sudeste 0 -- -- 99
2020-01-09 20:00:00 5.6 3 Oeste 7 Sudeste 0 -- -- 100
2020-01-09 19:00:00 5.1 5 Noroeste 10 Noroeste 0 -- -- 99
2020-01-09 18:00:00 5.3 0 Calma 8 Este 0 -- -- 99
2020-01-09 17:00:00 5.5 3 Nordeste 7 Este 0 -- -- 99
2020-01-09 16:00:00 5.5 0 Calma 5 Nordeste 0 -- -- 100
2020-01-09 15:00:00 5.2 2 Norte 6 Noroeste 0 -- -- 100
2020-01-09 14:00:00 4.6 0 Calma 5 Nordeste 0 -- -- 100
2020-01-09 13:00:00 3.9 2 Norte 10 Norte 0 -- -- 100
2020-01-09 12:00:00 3.4 3 Norte 6 Norte 0 -- -- 100
2020-01-09 11:00:00 3.1 4 Norte 8 Noroeste 0 -- -- 100
2020-01-09 10:00:00 2.9 3 Noroeste 8 Noroeste 0 -- -- 100
2020-01-09 09:00:00 2.6 4 Noroeste 8 Noroeste 0 -- -- 99
2020-01-09 08:00:00 2.7 4 Noroeste 8 Noroeste 0 -- -- 99
2020-01-09 07:00:00 2.7 3 Noroeste 8 Noroeste 0 -- -- 99
2020-01-09 06:00:00 3 4 Noroeste 9 Noroeste 0 -- -- 99
2020-01-09 05:00:00 3.3 0 Calma 6 Norte 0 -- -- 99
2020-01-09 04:00:00 3.4 3 Norte 6 Norte 0 -- -- 99
2020-01-09 03:00:00 3.5 2 Norte 6 Norte 0 -- -- 98
2020-01-09 02:00:00 3.5 2 Norte 5 Norte 0 -- -- 98
2020-01-09 01:00:00 3.6 0 Calma 5 Noroeste 0 -- -- 98
2020-01-09 00:00:00 3.4 0 Calma 3 Nordeste 0 -- -- 98
2020-01-08 23:00:00 2.3 0 Calma 4 Nordeste 0 -- -- 98
2020-01-08 22:00:00 1.9 0 Calma 2 Nordeste 0 -- -- 95
2020-01-08 21:00:00 2.8 0 Calma 5 Nordeste 0 -- -- 95
2020-01-08 20:00:00 3.8 0 Calma 5 Sudeste 0 -- -- 93
2020-01-08 19:00:00 5.1 0 Calma 5 Nordeste 0 -- -- 90
2020-01-08 18:00:00 7.1 2 Sudeste 4 Noroeste 0 -- -- 83
2020-01-08 17:00:00 10.1 4 Noroeste 10 Noroeste 0 -- -- 74
2020-01-08 16:00:00 10.4 6 Noroeste 11 Noroeste 0 -- -- 73
2020-01-08 15:00:00 10.2 4 Norte 14 Norte 0 -- -- 74
2020-01-08 14:00:00 9.2 5 Norte 11 Noroeste 0 -- -- 77
2020-01-08 13:00:00 7.8 5 Norte 9 Norte 0 -- -- 82
2020-01-08 12:00:00 6.1 3 Norte 8 Nordeste 0 -- -- 85
2020-01-08 11:00:00 4.1 3 Norte 9 Norte 0 -- -- 93
2020-01-08 10:00:00 3.4 2 Noroeste 10 Noroeste 0 -- -- 94
2020-01-08 09:00:00 3.1 6 Noroeste 14 Noroeste 0 -- -- 95
2020-01-08 08:00:00 3.4 9 Noroeste 21 Norte 0 -- -- 94
2020-01-08 07:00:00 3.5 10 Noroeste 20 Norte 0 -- -- 93
2020-01-08 06:00:00 3.4 11 Norte 21 Norte 0 -- -- 93
2020-01-08 05:00:00 3.4 13 Noroeste 22 Noroeste 0 -- -- 93
2020-01-08 04:00:00 3.4 12 Norte 22 Norte 0 -- -- 94
2020-01-08 03:00:00 3.3 12 Noroeste 22 Noroeste 0 -- -- 94
2020-01-08 02:00:00 3.2 13 Norte 22 Norte 0 -- -- 94
2020-01-08 01:00:00 3.2 10 Noroeste 17 Noroeste 0 -- -- 95
2020-01-08 00:00:00 2.9 10 Noroeste 19 Noroeste 0 -- -- 96
2020-01-07 23:00:00 2.3 4 Noroeste 14 Noroeste 0 -- -- 96
2020-01-07 22:00:00 2.9 7 Noroeste 12 Noroeste 0 -- -- 94
2020-01-07 21:00:00 3.4 4 Noroeste 19 Noroeste 0 -- -- 93
2020-01-07 20:00:00 4 9 Noroeste 17 Norte 0 -- -- 91
2020-01-07 19:00:00 3.9 7 Noroeste 15 Norte 0 -- -- 92
2020-01-07 18:00:00 4.4 10 Noroeste 23 Noroeste 0 -- -- 89
2020-01-07 17:00:00 5.6 12 Norte 28 Norte 0 -- -- 84
2020-01-07 16:00:00 6.5 16 Norte 31 Norte 0 -- -- 82
2020-01-07 15:00:00 6.9 18 Norte 32 Norte 0 -- -- 80
2020-01-07 14:00:00 5.4 17 Norte 28 Noroeste 0 -- -- 85
2020-01-07 13:00:00 4.9 17 Norte 27 Norte 0 -- -- 87
2020-01-07 12:00:00 4.4 14 Norte 24 Norte 0 -- -- 89
2020-01-07 11:00:00 4 12 Norte 24 Norte 0 -- -- 91
2020-01-07 10:00:00 3.5 11 Norte 22 Noroeste 0 -- -- 92
2020-01-07 09:00:00 3.1 10 Noroeste 21 Noroeste 0 -- -- 93
2020-01-07 08:00:00 3 12 Norte 23 Norte 0 -- -- 94
2020-01-07 07:00:00 3 12 Norte 21 Noroeste 0 -- -- 94
2020-01-07 06:00:00 3 13 Norte 22 Noroeste 0 -- -- 95
2020-01-07 05:00:00 2.9 12 Norte 23 Norte 0 -- -- 95
2020-01-07 04:00:00 2.9 12 Norte 21 Noroeste 0 -- -- 95
2020-01-07 03:00:00 3 13 Noroeste 19 Norte 0 -- -- 94
2020-01-07 02:00:00 3 12 Norte 19 Norte 0 -- -- 93
2020-01-07 01:00:00 3.1 9 Noroeste 21 Noroeste 0 -- -- 93
2020-01-07 00:00:00 3.2 10 Noroeste 23 Noroeste 0 -- -- 92
2020-01-06 23:00:00 3.1 14 Noroeste 25 Noroeste 0 -- -- 92
2020-01-06 22:00:00 3.3 13 Noroeste 24 Noroeste 0 -- -- 91
2020-01-06 21:00:00 3.9 10 Noroeste 22 Noroeste 0 -- -- 92
2020-01-06 20:00:00 4.2 10 Noroeste 18 Noroeste 0 -- -- 92
2020-01-06 19:00:00 4.6 8 Noroeste 17 Noroeste 0 -- -- 92
2020-01-06 18:00:00 4.9 7 Noroeste 14 Noroeste 0 -- -- 91
2020-01-06 17:00:00 5.9 9 Noroeste 16 Noroeste 0 -- -- 89
2020-01-06 16:00:00 6.4 10 Noroeste 21 Norte 0 -- -- 90
2020-01-06 15:00:00 6.1 5 Norte 12 Noroeste 0 -- -- 92
2020-01-06 14:00:00 5 3 Oeste 9 Noroeste 0 -- -- 98
2020-01-06 13:00:00 4.2 5 Norte 9 Norte 0 -- -- 99
2020-01-06 12:00:00 3.5 3 Norte 10 Norte 0 -- -- 99
2020-01-06 11:00:00 2.8 4 Norte 9 Norte 0 -- -- 99
2020-01-06 10:00:00 2.6 3 Norte 9 Norte 0 -- -- 99